Time,TemperatureF,DewpointF,PressureIn,WindDirection,WindDirectionDegrees,WindSpeedMPH,WindSpeedGustMPH,Humidity,HourlyPrecipIn,Conditions,Clouds,dailyrainin,SoftwareType,DateUTC
2016-08-29 00:01:00,68.2,66.4,29.98,SW,226,0.0,0.0,94,0.00,,,0.00,WeatherCatV2.30B86,2016-08-29 07:01:00,
2016-08-29 00:06:00,68.3,66.8,29.98,SW,225,0.0,0.0,95,0.00,,,0.00,WeatherCatV2.30B86,2016-08-29 07:06:00,
2016-08-29 00:10:00,68.3,66.8,29.98,SW,225,0.0,0.0,95,0.00,,,0.00,WeatherCatV2.30B86,2016-08-29 07:10:00,
2016-08-29 00:16:00,68.2,66.7,29.98,SW,225,0.0,0.0,95,0.00,,,0.00,WeatherCatV2.30B86,2016-08-29 07:16:00,
2016-08-29 00:20:00,68.2,66.7,29.98,SW,224,0.0,0.0,95,0.00,,,0.00,WeatherCatV2.30B86,2016-08-29 07:20:00,
2016-08-29 00:26:00,68.1,66.6,29.98,SW,223,0.0,0.0,95,0.00,,,0.00,WeatherCatV2.30B86,2016-08-29 07:26:00,
2016-08-29 00:31:00,68.0,66.5,29.98,SW,223,0.0,0.0,95,0.00,,,0.00,WeatherCatV2.30B86,2016-08-29 07:31:00,
2016-08-29 00:36:00,68.1,66.6,29.98,SW,223,0.0,0.0,95,0.00,,,0.00,WeatherCatV2.30B86,2016-08-29 07:36:00,
2016-08-29 00:41:00,68.0,66.5,29.98,SW,223,0.0,0.0,95,0.00,,,0.00,WeatherCatV2.30B86,2016-08-29 07:41:00,
2016-08-29 00:46:00,68.1,66.6,29.98,SW,223,0.0,0.0,95,0.00,,,0.00,WeatherCatV2.30B86,2016-08-29 07:46:00,
2016-08-29 00:51:00,68.1,66.6,29.98,SW,223,0.0,0.0,95,0.00,,,0.00,WeatherCatV2.30B86,2016-08-29 07:51:00,
2016-08-29 00:55:00,68.2,66.7,29.97,SW,223,0.0,0.0,95,0.00,,,0.00,WeatherCatV2.30B86,2016-08-29 07:55:00,
2016-08-29 01:01:00,68.2,66.7,29.97,SW,223,0.0,0.0,95,0.00,,,0.00,WeatherCatV2.30B86,2016-08-29 08:01:00,
2016-08-29 01:06:00,68.2,66.7,29.97,SW,223,0.0,0.0,95,0.00,,,0.00,WeatherCatV2.30B86,2016-08-29 08:06:00,
2016-08-29 01:11:00,68.3,67.1,29.97,SW,223,0.0,0.0,96,0.00,,,0.00,WeatherCatV2.30B86,2016-08-29 08:11:00,
2016-08-29 01:16:00,68.3,67.1,29.97,SW,223,0.0,0.0,96,0.00,,,0.00,WeatherCatV2.30B86,2016-08-29 08:16:00,
2016-08-29 01:21:00,68.3,67.1,29.97,SW,223,0.0,0.0,96,0.00,,,0.00,WeatherCatV2.30B86,2016-08-29 08:21:00,
2016-08-29 01:26:00,68.2,67.0,29.97,SW,223,0.0,0.0,96,0.00,,,0.00,WeatherCatV2.30B86,2016-08-29 08:26:00,
2016-08-29 01:31:00,68.2,67.0,29.97,SW,223,0.0,0.0,96,0.00,,,0.00,WeatherCatV2.30B86,2016-08-29 08:31:00,
2016-08-29 01:36:00,68.1,66.6,29.97,SW,223,0.0,0.0,95,0.00,,,0.00,WeatherCatV2.30B86,2016-08-29 08:36:00,
2016-08-29 01:41:00,67.8,66.3,29.97,SW,223,0.0,0.0,95,0.00,,,0.00,WeatherCatV2.30B86,2016-08-29 08:41:00,
2016-08-29 01:46:00,67.9,66.7,29.97,West,259,0.0,0.0,96,0.00,,,0.00,WeatherCatV2.30B86,2016-08-29 08:46:00,
2016-08-29 01:51:00,67.9,66.4,29.96,West,259,0.0,0.0,95,0.00,,,0.00,WeatherCatV2.30B86,2016-08-29 08:51:00,
2016-08-29 01:56:00,67.8,66.3,29.96,NW,321,0.0,0.0,95,0.00,,,0.00,WeatherCatV2.30B86,2016-08-29 08:56:00,
2016-08-29 02:06:00,67.7,66.2,29.96,NNW,344,0.0,0.0,95,0.00,,,0.00,WeatherCatV2.30B86,2016-08-29 09:06:00,
2016-08-29 02:11:00,67.7,66.2,29.96,NNW,344,0.0,0.0,95,0.00,,,0.00,WeatherCatV2.30B86,2016-08-29 09:11:00,
2016-08-29 02:16:00,67.7,66.2,29.96,NNW,344,0.0,0.0,95,0.00,,,0.00,WeatherCatV2.30B86,2016-08-29 09:16:00,
2016-08-29 02:21:00,67.8,66.3,29.96,NNW,344,0.0,0.0,95,0.00,,,0.00,WeatherCatV2.30B86,2016-08-29 09:21:00,
2016-08-29 02:26:00,67.8,66.3,29.96,NNW,327,0.0,0.0,95,0.00,,,0.00,WeatherCatV2.30B86,2016-08-29 09:26:00,
2016-08-29 02:31:00,67.8,66.3,29.96,NNW,347,0.0,0.0,95,0.00,,,0.00,WeatherCatV2.30B86,2016-08-29 09:31:00,
2016-08-29 02:36:00,67.8,66.3,29.96,NW,322,0.0,0.0,95,0.00,,,0.00,WeatherCatV2.30B86,2016-08-29 09:36:00,
2016-08-29 02:41:00,67.8,66.3,29.96,NNE,22,0.0,0.0,95,0.00,,,0.00,WeatherCatV2.30B86,2016-08-29 09:41:00,
2016-08-29 02:46:00,67.8,66.3,29.96,NNE,15,0.0,0.0,95,0.00,,,0.00,WeatherCatV2.30B86,2016-08-29 09:46:00,
2016-08-29 02:51:00,67.8,66.3,29.96,NNE,15,0.0,0.0,95,0.00,,,0.00,WeatherCatV2.30B86,2016-08-29 09:51:00,
2016-08-29 02:56:00,67.8,66.3,29.96,NNE,15,0.0,0.0,95,0.00,,,0.00,WeatherCatV2.30B86,2016-08-29 09:56:00,
2016-08-29 03:01:00,67.9,66.4,29.96,West,281,0.0,0.0,95,0.00,,,0.00,WeatherCatV2.30B86,2016-08-29 10:01:00,
2016-08-29 03:06:00,67.9,66.4,29.96,NNW,342,0.0,0.0,95,0.00,,,0.00,WeatherCatV2.30B86,2016-08-29 10:06:00,
2016-08-29 03:11:00,67.9,66.4,29.96,WNW,295,0.0,0.0,95,0.00,,,0.00,WeatherCatV2.30B86,2016-08-29 10:11:00,
2016-08-29 03:16:00,67.9,66.4,29.96,WNW,283,0.0,0.0,95,0.00,,,0.00,WeatherCatV2.30B86,2016-08-29 10:16:00,
2016-08-29 03:21:00,67.9,66.1,29.96,NNW,344,0.0,0.0,94,0.00,,,0.00,WeatherCatV2.30B86,2016-08-29 10:21:00,
2016-08-29 03:25:00,67.9,66.4,29.95,WNW,292,0.0,5.7,95,0.00,,,0.00,WeatherCatV2.30B86,2016-08-29 10:25:00,
2016-08-29 03:30:00,67.9,66.4,29.95,WNW,293,0.0,0.0,95,0.00,,,0.00,WeatherCatV2.30B86,2016-08-29 10:30:00,
2016-08-29 03:35:00,67.9,66.4,29.95,WNW,293,0.0,0.0,95,0.00,,,0.00,WeatherCatV2.30B86,2016-08-29 10:35:00,
2016-08-29 03:40:00,67.9,66.4,29.95,WNW,293,0.0,0.0,95,0.00,,,0.00,WeatherCatV2.30B86,2016-08-29 10:40:00,
2016-08-29 03:50:00,67.9,66.4,29.95,WNW,293,0.0,0.0,95,0.00,,,0.00,WeatherCatV2.30B86,2016-08-29 10:50:00,
2016-08-29 03:55:00,67.9,66.1,29.95,WNW,293,0.0,0.0,94,0.00,,,0.00,WeatherCatV2.30B86,2016-08-29 10:55:00,
2016-08-29 04:05:00,67.9,66.1,29.95,WNW,293,0.0,0.0,94,0.00,,,0.00,WeatherCatV2.30B86,2016-08-29 11:05:00,
2016-08-29 04:10:00,67.9,66.1,29.95,WNW,293,0.0,0.0,94,0.00,,,0.00,WeatherCatV2.30B86,2016-08-29 11:10:00,
2016-08-29 04:20:00,67.9,66.1,29.94,East,79,0.0,0.0,94,0.00,,,0.00,WeatherCatV2.30B86,2016-08-29 11:20:00,
2016-08-29 04:25:00,67.8,66.0,29.94,NE,54,1.9,1.9,94,0.00,,,0.00,WeatherCatV2.30B86,2016-08-29 11:25:00,
2016-08-29 04:30:00,67.8,66.0,29.94,NE,56,0.0,1.9,94,0.00,,,0.00,WeatherCatV2.30B86,2016-08-29 11:30:00,
2016-08-29 04:35:00,67.7,65.9,29.94,East,86,0.0,0.0,94,0.00,,,0.00,WeatherCatV2.30B86,2016-08-29 11:35:00,
2016-08-29 04:40:00,67.7,65.9,29.94,SE,131,0.0,0.0,94,0.00,,,0.00,WeatherCatV2.30B86,2016-08-29 11:40:00,
2016-08-29 04:45:00,67.7,65.9,29.94,SE,131,0.0,0.0,94,0.00,,,0.00,WeatherCatV2.30B86,2016-08-29 11:45:00,
2016-08-29 04:50:00,67.7,65.9,29.94,SE,131,0.0,0.0,94,0.00,,,0.00,WeatherCatV2.30B86,2016-08-29 11:50:00,
2016-08-29 04:55:00,67.6,65.8,29.94,ESE,113,0.0,0.0,94,0.00,,,0.00,WeatherCatV2.30B86,2016-08-29 11:55:00,
2016-08-29 05:01:00,67.6,65.8,29.94,ESE,113,0.0,0.0,94,0.00,,,0.00,WeatherCatV2.30B86,2016-08-29 12:01:00,
2016-08-29 05:06:00,67.5,65.7,29.94,NE,41,0.0,3.8,94,0.00,,,0.00,WeatherCatV2.30B86,2016-08-29 12:06:00,
2016-08-29 05:11:00,67.5,65.7,29.94,NE,51,1.9,3.8,94,0.00,,,0.00,WeatherCatV2.30B86,2016-08-29 12:11:00,
2016-08-29 05:16:00,67.4,65.6,29.94,East,80,1.9,3.8,94,0.00,,,0.00,WeatherCatV2.30B86,2016-08-29 12:16:00,
2016-08-29 05:21:00,67.3,65.5,29.94,ESE,105,0.0,3.8,94,0.00,,,0.00,WeatherCatV2.30B86,2016-08-29 12:21:00,
2016-08-29 05:26:00,67.2,65.4,29.94,East,93,0.0,3.8,94,0.00,,,0.00,WeatherCatV2.30B86,2016-08-29 12:26:00,
2016-08-29 05:31:00,67.2,65.4,29.94,East,93,0.0,3.8,94,0.00,,,0.00,WeatherCatV2.30B86,2016-08-29 12:31:00,
2016-08-29 05:36:00,67.2,65.4,29.94,SW,214,1.9,3.8,94,0.00,,,0.00,WeatherCatV2.30B86,2016-08-29 12:36:00,
2016-08-29 05:41:00,67.3,65.5,29.94,SW,214,0.0,0.0,94,0.00,,,0.00,WeatherCatV2.30B86,2016-08-29 12:41:00,
2016-08-29 05:46:00,67.3,65.5,29.94,SW,214,0.0,1.9,94,0.00,,,0.00,WeatherCatV2.30B86,2016-08-29 12:46:00,
2016-08-29 05:51:00,67.3,65.5,29.94,ESE,110,0.0,0.0,94,0.00,,,0.00,WeatherCatV2.30B86,2016-08-29 12:51:00,
2016-08-29 05:56:00,67.3,65.5,29.94,SE,125,1.9,1.9,94,0.00,,,0.00,WeatherCatV2.30B86,2016-08-29 12:56:00,
2016-08-29 06:01:00,67.3,65.5,29.94,SE,129,1.9,1.9,94,0.00,,,0.00,WeatherCatV2.30B86,2016-08-29 13:01:00,
2016-08-29 06:06:00,67.2,65.4,29.94,East,95,1.9,3.8,94,0.00,,,0.00,WeatherCatV2.30B86,2016-08-29 13:06:00,
2016-08-29 06:11:00,67.2,65.4,29.94,ESE,108,1.9,3.8,94,0.00,,,0.00,WeatherCatV2.30B86,2016-08-29 13:11:00,
2016-08-29 06:16:00,67.2,65.4,29.94,ESE,108,0.0,0.0,94,0.00,,,0.00,WeatherCatV2.30B86,2016-08-29 13:16:00,
2016-08-29 06:21:00,67.2,65.4,29.94,ESE,108,1.9,1.9,94,0.00,,,0.00,WeatherCatV2.30B86,2016-08-29 13:21:00,
2016-08-29 06:26:00,67.1,65.3,29.94,East,100,1.9,1.9,94,0.00,,,0.00,WeatherCatV2.30B86,2016-08-29 13:26:00,
2016-08-29 06:31:00,67.1,65.3,29.94,ESE,111,0.0,5.7,94,0.00,,,0.00,WeatherCatV2.30B86,2016-08-29 13:31:00,
2016-08-29 06:36:00,67.0,65.2,29.94,ESE,122,0.0,0.0,94,0.00,,,0.00,WeatherCatV2.30B86,2016-08-29 13:36:00,
2016-08-29 06:41:00,67.0,65.5,29.94,North,8,1.9,3.8,95,0.00,,,0.00,WeatherCatV2.30B86,2016-08-29 13:41:00,
2016-08-29 06:46:00,67.1,65.6,29.95,North,8,0.0,0.0,95,0.00,,,0.00,WeatherCatV2.30B86,2016-08-29 13:46:00,
2016-08-29 06:51:00,67.1,65.6,29.95,WNW,283,1.9,3.8,95,0.00,,,0.00,WeatherCatV2.30B86,2016-08-29 13:51:00,
2016-08-29 06:56:00,67.1,65.6,29.95,West,279,0.0,1.9,95,0.00,,,0.00,WeatherCatV2.30B86,2016-08-29 13:56:00,
2016-08-29 07:01:00,67.1,65.6,29.95,West,279,0.0,0.0,95,0.00,,,0.00,WeatherCatV2.30B86,2016-08-29 14:01:00,
2016-08-29 07:06:00,67.2,65.7,29.95,West,279,0.0,0.0,95,0.00,,,0.00,WeatherCatV2.30B86,2016-08-29 14:06:00,
2016-08-29 07:11:00,67.2,65.7,29.95,West,281,0.0,0.0,95,0.00,,,0.00,WeatherCatV2.30B86,2016-08-29 14:11:00,
2016-08-29 07:16:00,67.3,65.8,29.95,West,281,1.9,1.9,95,0.00,,,0.00,WeatherCatV2.30B86,2016-08-29 14:16:00,
2016-08-29 07:21:00,67.3,65.8,29.95,West,276,5.7,7.6,95,0.00,,,0.00,WeatherCatV2.30B86,2016-08-29 14:21:00,
2016-08-29 07:26:00,67.3,65.8,29.96,NW,314,0.0,1.9,95,0.00,,,0.00,WeatherCatV2.30B86,2016-08-29 14:26:00,
2016-08-29 07:31:00,67.4,65.9,29.95,SSW,199,0.0,1.9,95,0.00,,,0.00,WeatherCatV2.30B86,2016-08-29 14:31:00,
2016-08-29 07:36:00,67.4,65.9,29.96,West,279,3.8,3.8,95,0.00,,,0.00,WeatherCatV2.30B86,2016-08-29 14:36:00,
2016-08-29 07:41:00,67.4,65.6,29.96,WSW,240,0.0,3.8,94,0.00,,,0.00,WeatherCatV2.30B86,2016-08-29 14:41:00,
2016-08-29 07:46:00,67.5,66.0,29.96,SW,233,0.0,3.8,95,0.00,,,0.00,WeatherCatV2.30B86,2016-08-29 14:46:00,
2016-08-29 07:51:00,67.6,66.1,29.96,WSW,245,3.8,3.8,95,0.00,,,0.00,WeatherCatV2.30B86,2016-08-29 14:51:00,
2016-08-29 07:56:00,67.6,65.8,29.96,SW,228,5.7,5.7,94,0.00,,,0.00,WeatherCatV2.30B86,2016-08-29 14:56:00,
2016-08-29 08:01:00,67.5,66.0,29.96,South,169,0.0,1.9,95,0.00,,,0.00,WeatherCatV2.30B86,2016-08-29 15:01:00,
2016-08-29 08:06:00,67.5,66.0,29.96,WSW,240,3.8,5.7,95,0.00,,,0.00,WeatherCatV2.30B86,2016-08-29 15:06:00,
2016-08-29 08:11:00,67.5,66.0,29.96,WNW,285,1.9,7.6,95,0.00,,,0.00,WeatherCatV2.30B86,2016-08-29 15:11:00,
2016-08-29 08:16:00,67.5,66.0,29.97,SSW,206,0.0,3.8,95,0.00,,,0.00,WeatherCatV2.30B86,2016-08-29 15:16:00,
2016-08-29 08:21:00,67.5,66.0,29.96,NW,315,1.9,3.8,95,0.00,,,0.00,WeatherCatV2.30B86,2016-08-29 15:21:00,
2016-08-29 08:26:00,67.7,66.2,29.97,NW,315,0.0,0.0,95,0.00,,,0.00,WeatherCatV2.30B86,2016-08-29 15:26:00,
2016-08-29 08:31:00,67.8,66.3,29.97,NW,315,0.0,0.0,95,0.00,,,0.00,WeatherCatV2.30B86,2016-08-29 15:31:00,
2016-08-29 08:36:00,67.9,66.4,29.97,NW,308,0.0,0.0,95,0.00,,,0.00,WeatherCatV2.30B86,2016-08-29 15:36:00,
2016-08-29 08:41:00,67.8,66.3,29.97,WSW,247,3.8,5.7,95,0.00,,,0.00,WeatherCatV2.30B86,2016-08-29 15:41:00,
2016-08-29 08:46:00,67.8,66.3,29.96,WNW,283,1.9,7.6,95,0.00,,,0.00,WeatherCatV2.30B86,2016-08-29 15:46:00,
2016-08-29 08:51:00,67.8,66.3,29.96,West,263,0.0,5.7,95,0.00,,,0.00,WeatherCatV2.30B86,2016-08-29 15:51:00,
2016-08-29 08:56:00,67.8,66.3,29.97,South,186,0.0,1.9,95,0.00,,,0.00,WeatherCatV2.30B86,2016-08-29 15:56:00,
2016-08-29 09:01:00,67.9,66.4,29.97,WSW,256,1.9,1.9,95,0.00,,,0.00,WeatherCatV2.30B86,2016-08-29 16:01:00,
2016-08-29 09:06:00,67.8,66.3,29.97,WNW,288,1.9,5.7,95,0.00,,,0.00,WeatherCatV2.30B86,2016-08-29 16:06:00,
2016-08-29 09:11:00,67.8,66.3,29.97,SSW,210,3.8,7.6,95,0.00,,,0.00,WeatherCatV2.30B86,2016-08-29 16:11:00,
2016-08-29 09:16:00,67.8,66.3,29.97,SW,225,3.8,3.8,95,0.00,,,0.00,WeatherCatV2.30B86,2016-08-29 16:16:00,
2016-08-29 09:20:00,67.9,66.4,29.97,SW,233,1.9,5.7,95,0.00,,,0.00,WeatherCatV2.30B86,2016-08-29 16:20:00,
2016-08-29 09:25:00,68.0,66.5,29.97,WSW,245,3.8,5.7,95,0.00,,,0.00,WeatherCatV2.30B86,2016-08-29 16:25:00,
2016-08-29 09:30:00,68.1,66.6,29.97,SW,216,0.0,3.8,95,0.00,,,0.00,WeatherCatV2.30B86,2016-08-29 16:30:00,
2016-08-29 09:35:00,68.0,66.5,29.97,WSW,248,5.7,7.6,95,0.00,,,0.00,WeatherCatV2.30B86,2016-08-29 16:35:00,
2016-08-29 09:40:00,68.0,66.5,29.97,SSE,152,3.8,5.7,95,0.00,,,0.00,WeatherCatV2.30B86,2016-08-29 16:40:00,
2016-08-29 09:45:00,68.1,66.3,29.97,SW,231,7.6,7.6,94,0.00,,,0.00,WeatherCatV2.30B86,2016-08-29 16:45:00,
2016-08-29 09:50:00,68.1,66.6,29.96,WNW,295,3.8,5.7,95,0.00,,,0.00,WeatherCatV2.30B86,2016-08-29 16:50:00,
2016-08-29 09:55:00,68.3,66.8,29.96,SW,226,5.7,5.7,95,0.00,,,0.00,WeatherCatV2.30B86,2016-08-29 16:55:00,
2016-08-29 10:06:00,68.5,66.7,29.96,SW,221,3.8,7.6,94,0.00,,,0.00,WeatherCatV2.30B86,2016-08-29 17:06:00,
2016-08-29 10:11:00,68.5,66.7,29.96,South,180,3.8,5.7,94,0.00,,,0.00,WeatherCatV2.30B86,2016-08-29 17:11:00,
2016-08-29 10:16:00,68.8,67.0,29.96,South,181,7.6,7.6,94,0.00,,,0.00,WeatherCatV2.30B86,2016-08-29 17:16:00,
2016-08-29 10:21:00,68.9,67.1,29.96,SSW,203,7.6,7.6,94,0.00,,,0.00,WeatherCatV2.30B86,2016-08-29 17:21:00,
2016-08-29 10:26:00,68.9,67.1,29.96,SW,229,7.6,11.4,94,0.00,,,0.00,WeatherCatV2.30B86,2016-08-29 17:26:00,
2016-08-29 10:31:00,69.0,66.9,29.96,SW,220,7.6,13.3,93,0.00,,,0.00,WeatherCatV2.30B86,2016-08-29 17:31:00,
2016-08-29 10:36:00,69.1,67.0,29.96,West,262,5.7,9.5,93,0.00,,,0.00,WeatherCatV2.30B86,2016-08-29 17:36:00,
2016-08-29 10:41:00,69.0,66.9,29.96,WSW,238,5.7,7.6,93,0.00,,,0.00,WeatherCatV2.30B86,2016-08-29 17:41:00,
2016-08-29 10:46:00,68.9,66.5,29.96,SSE,165,5.7,9.5,92,0.00,,,0.00,WeatherCatV2.30B86,2016-08-29 17:46:00,
2016-08-29 10:51:00,68.9,66.8,29.96,SSW,210,0.0,5.7,93,0.00,,,0.00,WeatherCatV2.30B86,2016-08-29 17:51:00,
2016-08-29 10:56:00,68.9,66.8,29.96,SW,221,3.8,9.5,93,0.00,,,0.00,WeatherCatV2.30B86,2016-08-29 17:56:00,
2016-08-29 11:01:00,68.8,66.7,29.96,West,281,7.6,11.4,93,0.00,,,0.00,WeatherCatV2.30B86,2016-08-29 18:01:00,
2016-08-29 11:06:00,68.8,67.0,29.96,West,275,9.5,9.5,94,0.00,,,0.00,WeatherCatV2.30B86,2016-08-29 18:06:00,
2016-08-29 11:11:00,68.7,66.6,29.96,WSW,249,5.7,13.3,93,0.00,,,0.00,WeatherCatV2.30B86,2016-08-29 18:11:00,
2016-08-29 11:16:00,68.5,66.7,29.95,WNW,285,9.5,11.4,94,0.00,,,0.00,WeatherCatV2.30B86,2016-08-29 18:16:00,
2016-08-29 11:21:00,68.3,66.5,29.95,WSW,245,3.8,13.3,94,0.00,,,0.00,WeatherCatV2.30B86,2016-08-29 18:21:00,
2016-08-29 11:26:00,68.3,66.5,29.95,WSW,252,3.8,7.6,94,0.00,,,0.00,WeatherCatV2.30B86,2016-08-29 18:26:00,
2016-08-29 11:31:00,68.3,66.5,29.95,West,262,5.7,5.7,94,0.00,,,0.00,WeatherCatV2.30B86,2016-08-29 18:31:00,
2016-08-29 11:36:00,68.5,66.7,29.95,NW,307,3.8,5.7,94,0.00,,,0.00,WeatherCatV2.30B86,2016-08-29 18:36:00,
2016-08-29 11:41:00,68.9,67.1,29.95,West,260,9.5,13.3,94,0.00,,,0.00,WeatherCatV2.30B86,2016-08-29 18:41:00,
2016-08-29 11:46:00,68.8,66.7,29.95,SSE,162,1.9,9.5,93,0.00,,,0.00,WeatherCatV2.30B86,2016-08-29 18:46:00,
2016-08-29 11:51:00,68.7,66.6,29.94,WSW,255,5.7,9.5,93,0.00,,,0.00,WeatherCatV2.30B86,2016-08-29 18:51:00,
2016-08-29 11:56:00,69.1,67.3,29.94,WSW,257,9.5,9.5,94,0.00,,,0.00,WeatherCatV2.30B86,2016-08-29 18:56:00,
2016-08-29 12:01:00,69.3,66.9,29.94,SW,231,9.5,9.5,92,0.00,,,0.00,WeatherCatV2.30B86,2016-08-29 19:01:00,
2016-08-29 12:06:00,69.4,67.3,29.94,SW,233,3.8,15.2,93,0.00,,,0.00,WeatherCatV2.30B86,2016-08-29 19:06:00,
2016-08-29 12:11:00,69.6,67.2,29.94,WNW,285,3.8,7.6,92,0.00,,,0.00,WeatherCatV2.30B86,2016-08-29 19:11:00,
2016-08-29 12:16:00,69.3,66.6,29.93,SSW,197,3.8,9.5,91,0.00,,,0.00,WeatherCatV2.30B86,2016-08-29 19:16:00,
2016-08-29 12:21:00,69.2,66.4,29.93,SSW,209,1.9,15.2,91,0.00,,,0.00,WeatherCatV2.30B86,2016-08-29 19:21:00,
2016-08-29 12:26:00,69.4,66.7,29.93,SSW,209,11.4,15.2,91,0.00,,,0.00,WeatherCatV2.30B86,2016-08-29 19:26:00,
2016-08-29 12:30:00,69.7,67.3,29.93,SSE,168,3.8,3.8,92,0.00,,,0.00,WeatherCatV2.30B86,2016-08-29 19:30:00,
2016-08-29 12:35:00,70.5,67.7,29.93,SSE,165,11.4,11.4,91,0.00,,,0.00,WeatherCatV2.30B86,2016-08-29 19:35:00,
2016-08-29 12:40:00,70.8,67.4,29.92,SSW,201,1.9,7.6,89,0.00,,,0.00,WeatherCatV2.30B86,2016-08-29 19:40:00,
2016-08-29 12:45:00,71.1,67.7,29.92,WSW,247,11.4,11.4,89,0.00,,,0.00,WeatherCatV2.30B86,2016-08-29 19:45:00,
2016-08-29 12:50:00,71.1,67.4,29.92,South,191,7.6,11.4,88,0.00,,,0.00,WeatherCatV2.30B86,2016-08-29 19:50:00,
2016-08-29 12:55:00,70.9,66.8,29.92,WSW,256,9.5,9.5,87,0.00,,,0.00,WeatherCatV2.30B86,2016-08-29 19:55:00,
2016-08-29 13:00:00,71.1,67.7,29.92,SSW,206,7.6,20.9,89,0.00,,,0.00,WeatherCatV2.30B86,2016-08-29 20:00:00,
2016-08-29 13:05:00,71.4,67.3,29.92,WSW,238,11.4,13.3,87,0.00,,,0.00,WeatherCatV2.30B86,2016-08-29 20:05:00,
2016-08-29 13:10:00,71.3,67.2,29.92,SSW,200,7.6,15.2,87,0.00,,,0.00,WeatherCatV2.30B86,2016-08-29 20:10:00,
2016-08-29 13:15:00,71.3,67.2,29.92,SW,236,13.3,15.2,87,0.00,,,0.00,WeatherCatV2.30B86,2016-08-29 20:15:00,
2016-08-29 13:20:00,71.2,67.1,29.92,SSE,154,9.5,9.5,87,0.00,,,0.00,WeatherCatV2.30B86,2016-08-29 20:20:00,
2016-08-29 13:25:00,71.4,67.7,29.92,SSE,164,11.4,11.4,88,0.00,,,0.00,WeatherCatV2.30B86,2016-08-29 20:25:00,
2016-08-29 13:30:00,71.6,67.8,29.92,SSE,155,13.3,13.3,88,0.00,,,0.00,WeatherCatV2.30B86,2016-08-29 20:30:00,
2016-08-29 13:35:00,71.6,67.5,29.92,SSW,206,5.7,15.2,87,0.00,,,0.00,WeatherCatV2.30B86,2016-08-29 20:35:00,
2016-08-29 13:40:00,72.0,67.6,29.92,West,262,5.7,13.3,86,0.00,,,0.00,WeatherCatV2.30B86,2016-08-29 20:40:00,
2016-08-29 13:45:00,72.0,67.6,29.92,SSE,158,9.5,15.2,86,0.00,,,0.00,WeatherCatV2.30B86,2016-08-29 20:45:00,
2016-08-29 13:50:00,72.3,67.9,29.92,South,174,9.5,13.3,86,0.00,,,0.00,WeatherCatV2.30B86,2016-08-29 20:50:00,
2016-08-29 13:55:00,72.0,67.9,29.91,WSW,256,11.4,17.1,87,0.00,,,0.00,WeatherCatV2.30B86,2016-08-29 20:55:00,
2016-08-29 14:00:00,72.4,68.3,29.91,South,172,7.6,11.4,87,0.00,,,0.00,WeatherCatV2.30B86,2016-08-29 21:00:00,
2016-08-29 14:05:00,72.4,68.0,29.91,SSW,210,13.3,15.2,86,0.00,,,0.00,WeatherCatV2.30B86,2016-08-29 21:05:00,
2016-08-29 14:10:00,72.3,67.9,29.91,SW,235,9.5,17.1,86,0.00,,,0.00,WeatherCatV2.30B86,2016-08-29 21:10:00,
2016-08-29 14:15:00,72.6,68.2,29.91,SW,223,3.8,11.4,86,0.00,,,0.00,WeatherCatV2.30B86,2016-08-29 21:15:00,
2016-08-29 14:20:00,72.9,68.1,29.90,South,172,13.3,13.3,85,0.00,,,0.00,WeatherCatV2.30B86,2016-08-29 21:20:00,
2016-08-29 14:25:00,72.9,68.5,29.90,SW,231,5.7,13.3,86,0.00,,,0.00,WeatherCatV2.30B86,2016-08-29 21:25:00,
2016-08-29 14:30:00,72.6,67.8,29.89,West,259,5.7,15.2,85,0.00,,,0.00,WeatherCatV2.30B86,2016-08-29 21:30:00,
2016-08-29 14:35:00,72.4,68.0,29.89,SW,224,7.6,13.3,86,0.00,,,0.00,WeatherCatV2.30B86,2016-08-29 21:35:00,
2016-08-29 14:40:00,72.7,68.6,29.89,SSE,156,11.4,17.1,87,0.00,,,0.00,WeatherCatV2.30B86,2016-08-29 21:40:00,
2016-08-29 14:45:00,73.0,68.2,29.89,South,184,1.9,15.2,85,0.00,,,0.00,WeatherCatV2.30B86,2016-08-29 21:45:00,
2016-08-29 14:50:00,73.2,68.4,29.89,WSW,247,11.4,15.2,85,0.00,,,0.00,WeatherCatV2.30B86,2016-08-29 21:50:00,
2016-08-29 14:55:00,72.7,68.3,29.88,South,172,11.4,15.2,86,0.00,,,0.00,WeatherCatV2.30B86,2016-08-29 21:55:00,
2016-08-29 15:00:00,72.6,68.5,29.88,South,187,9.5,11.4,87,0.00,,,0.00,WeatherCatV2.30B86,2016-08-29 22:00:00,
2016-08-29 15:05:00,72.7,68.3,29.88,South,173,7.6,13.3,86,0.00,,,0.00,WeatherCatV2.30B86,2016-08-29 22:05:00,
2016-08-29 15:10:00,72.7,68.3,29.88,SSW,200,11.4,17.1,86,0.00,,,0.00,WeatherCatV2.30B86,2016-08-29 22:10:00,
2016-08-29 15:15:00,72.9,68.5,29.88,SW,231,3.8,15.2,86,0.00,,,0.00,WeatherCatV2.30B86,2016-08-29 22:15:00,
2016-08-29 15:20:00,72.9,68.1,29.88,South,181,9.5,13.3,85,0.00,,,0.00,WeatherCatV2.30B86,2016-08-29 22:20:00,
2016-08-29 15:25:00,72.8,68.7,29.87,South,190,3.8,11.4,87,0.00,,,0.00,WeatherCatV2.30B86,2016-08-29 22:25:00,
2016-08-29 15:30:00,72.9,68.1,29.87,SSW,194,7.6,17.1,85,0.00,,,0.00,WeatherCatV2.30B86,2016-08-29 22:30:00,
2016-08-29 15:35:00,72.8,68.0,29.87,SW,215,11.4,15.2,85,0.00,,,0.00,WeatherCatV2.30B86,2016-08-29 22:35:00,
2016-08-29 15:40:00,72.4,68.0,29.87,WSW,237,11.4,13.3,86,0.00,,,0.00,WeatherCatV2.30B86,2016-08-29 22:40:00,
2016-08-29 15:45:00,72.5,68.4,29.87,SW,227,11.4,17.1,87,0.00,,,0.00,WeatherCatV2.30B86,2016-08-29 22:45:00,
2016-08-29 15:50:00,72.5,68.1,29.87,WNW,285,7.6,11.4,86,0.00,,,0.00,WeatherCatV2.30B86,2016-08-29 22:50:00,
2016-08-29 15:55:00,72.6,67.1,29.86,SSE,166,7.6,11.4,83,0.00,,,0.00,WeatherCatV2.30B86,2016-08-29 22:55:00,
2016-08-29 16:00:00,72.8,67.7,29.86,South,187,11.4,13.3,84,0.00,,,0.00,WeatherCatV2.30B86,2016-08-29 23:00:00,
2016-08-29 16:05:00,73.1,67.3,29.86,SW,225,3.8,11.4,82,0.00,,,0.00,WeatherCatV2.30B86,2016-08-29 23:05:00,
2016-08-29 16:10:00,72.7,66.5,29.86,WSW,246,9.5,13.3,81,0.00,,,0.00,WeatherCatV2.30B86,2016-08-29 23:10:00,
2016-08-29 16:15:00,73.2,67.7,29.85,South,187,5.7,9.5,83,0.00,,,0.00,WeatherCatV2.30B86,2016-08-29 23:15:00,
2016-08-29 16:20:00,73.1,66.9,29.86,SSW,205,3.8,7.6,81,0.00,,,0.00,WeatherCatV2.30B86,2016-08-29 23:20:00,
2016-08-29 16:25:00,73.1,66.9,29.86,SE,144,1.9,5.7,81,0.00,,,0.00,WeatherCatV2.30B86,2016-08-29 23:25:00,
2016-08-29 16:30:00,73.5,66.6,29.85,South,183,3.8,7.6,79,0.00,,,0.00,WeatherCatV2.30B86,2016-08-29 23:30:00,
2016-08-29 16:35:00,73.7,65.7,29.85,SW,233,5.7,7.6,76,0.00,,,0.00,WeatherCatV2.30B86,2016-08-29 23:35:00,
2016-08-29 16:40:00,74.1,66.4,29.85,West,276,3.8,7.6,77,0.00,,,0.00,WeatherCatV2.30B86,2016-08-29 23:40:00,
2016-08-29 16:45:00,74.6,67.3,29.85,South,186,7.6,9.5,78,0.00,,,0.00,WeatherCatV2.30B86,2016-08-29 23:45:00,
2016-08-29 16:50:00,74.4,67.1,29.85,SSW,212,1.9,5.7,78,0.00,,,0.00,WeatherCatV2.30B86,2016-08-29 23:50:00,
2016-08-29 16:55:00,74.5,67.2,29.85,SW,217,5.7,7.6,78,0.00,,,0.00,WeatherCatV2.30B86,2016-08-29 23:55:00,
2016-08-29 17:00:00,74.1,66.8,29.85,West,277,3.8,11.4,78,0.00,,,0.00,WeatherCatV2.30B86,2016-08-30 00:00:00,
2016-08-29 17:05:00,74.5,67.9,29.84,SW,219,5.7,11.4,80,0.00,,,0.00,WeatherCatV2.30B86,2016-08-30 00:05:00,
2016-08-29 17:10:00,74.4,67.8,29.85,SSW,202,5.7,11.4,80,0.00,,,0.00,WeatherCatV2.30B86,2016-08-30 00:10:00,
2016-08-29 17:15:00,74.4,67.8,29.85,SSE,167,3.8,7.6,80,0.00,,,0.00,WeatherCatV2.30B86,2016-08-30 00:15:00,
2016-08-29 17:20:00,74.3,68.1,29.85,WNW,284,3.8,7.6,81,0.00,,,0.00,WeatherCatV2.30B86,2016-08-30 00:20:00,
2016-08-29 17:25:00,74.2,68.0,29.84,SSE,163,5.7,11.4,81,0.00,,,0.00,WeatherCatV2.30B86,2016-08-30 00:25:00,
2016-08-29 17:30:00,73.9,68.1,29.85,South,188,3.8,9.5,82,0.00,,,0.00,WeatherCatV2.30B86,2016-08-30 00:30:00,
2016-08-29 17:35:00,73.8,68.3,29.84,SSW,192,3.8,7.6,83,0.00,,,0.00,WeatherCatV2.30B86,2016-08-30 00:35:00,
2016-08-29 17:40:00,74.1,68.6,29.84,South,173,3.8,11.4,83,0.00,,,0.00,WeatherCatV2.30B86,2016-08-30 00:40:00,
2016-08-29 17:45:00,73.8,67.9,29.84,South,177,3.8,7.6,82,0.00,,,0.00,WeatherCatV2.30B86,2016-08-30 00:45:00,
2016-08-29 17:55:00,73.7,68.6,29.84,SE,136,5.7,11.4,84,0.00,,,0.00,WeatherCatV2.30B86,2016-08-30 00:55:00,
2016-08-29 18:00:00,73.6,68.8,29.84,South,176,3.8,9.5,85,0.00,,,0.00,WeatherCatV2.30B86,2016-08-30 01:00:00,
2016-08-29 18:05:00,73.4,68.6,29.84,SSW,192,3.8,5.7,85,0.00,,,0.00,WeatherCatV2.30B86,2016-08-30 01:05:00,
2016-08-29 18:10:00,73.3,68.5,29.84,SSE,159,7.6,7.6,85,0.00,,,0.00,WeatherCatV2.30B86,2016-08-30 01:10:00,
2016-08-29 18:15:00,73.0,68.2,29.84,South,179,1.9,9.5,85,0.00,,,0.00,WeatherCatV2.30B86,2016-08-30 01:15:00,
2016-08-29 18:20:00,73.0,68.6,29.84,SSW,195,1.9,9.5,86,0.00,,,0.00,WeatherCatV2.30B86,2016-08-30 01:20:00,
2016-08-29 18:25:00,73.0,68.9,29.84,SW,232,1.9,1.9,87,0.00,,,0.00,WeatherCatV2.30B86,2016-08-30 01:25:00,
2016-08-29 18:30:00,73.1,68.7,29.84,WSW,248,1.9,3.8,86,0.00,,,0.00,WeatherCatV2.30B86,2016-08-30 01:30:00,
2016-08-29 18:35:00,73.2,68.8,29.84,South,189,0.0,1.9,86,0.00,,,0.00,WeatherCatV2.30B86,2016-08-30 01:35:00,
2016-08-29 18:40:00,73.1,68.7,29.84,South,188,3.8,3.8,86,0.00,,,0.00,WeatherCatV2.30B86,2016-08-30 01:40:00,
2016-08-29 18:45:00,72.7,68.3,29.84,South,188,3.8,7.6,86,0.00,,,0.00,WeatherCatV2.30B86,2016-08-30 01:45:00,
2016-08-29 18:50:00,72.4,68.3,29.84,South,179,3.8,3.8,87,0.00,,,0.00,WeatherCatV2.30B86,2016-08-30 01:50:00,
2016-08-29 18:55:00,72.2,68.1,29.85,South,176,3.8,5.7,87,0.00,,,0.00,WeatherCatV2.30B86,2016-08-30 01:55:00,
2016-08-29 19:00:00,71.8,68.0,29.85,WSW,243,1.9,5.7,88,0.00,,,0.00,WeatherCatV2.30B86,2016-08-30 02:00:00,
2016-08-29 19:05:00,71.5,68.1,29.85,SW,233,1.9,3.8,89,0.00,,,0.00,WeatherCatV2.30B86,2016-08-30 02:05:00,